Home   Weather   Township of Fairfield   Past weeks
Flag for USA

Past Weather in Township of Fairfield, Ohio, USA — Yesterday and Last 2 Weeks

Now
76 °F

Sunny.


Feels Like: 78 °F
Forecast: 83 / 58 °F
Wind: 3 mph from Northwest

Location: Lorain County Regional Airport

Current Time: Jul 13, 2020 at 8:35:11 pm

Latest Report: Jul 13, 2020 at 7:53 pm


Visibility: 10 mi

Pressure: 29.98 "Hg

Humidity: 48%

Dew Point: 55 °F

Location of Township of FairfieldLocation

Past Weather in Township of Fairfield — Graph

°F

Township of Fairfield Temperature Yesterday

Maximum temperature yesterday: 82 °F (at 4:53 pm)
Minimum temperature yesterday: 66 °F (at 6:53 am)
Average temperature yesterday: 74 °F

High & Low Weather Summary for the Past Weeks

 TemperatureHumidityPressure
High94 °F (Jul 9, 2:53 pm)86% (Jun 30, 5:53 am)30.03 "Hg (Jun 30, 5:53 am)
Low60 °F (Jun 30, 5:53 am)27% (Jul 5, 6:53 pm)29.67 "Hg (Jul 11, 2:53 am)
Average76 °F59%29.92 "Hg
* Reported Jun 28 6:53 pm — Jul 13 6:53 pm, Township of Fairfield. Weather by CustomWeather, © 2020

Note: Actual official high and low records may vary slightly from our data, if they occured in-between our weather recording intervals... More about our weather records

Township of Fairfield Weather History for the Previous 24 Hours

Scroll right to see more
 ConditionsComfort  
Time TempWeatherWind HumidityBarometerVisibility
6:53 pm
Mon, Jul 13
76 °FSunny.7 mph48%29.97 "Hg10 mi
5:53 pm78 °FPassing clouds.9 mph43%29.97 "Hg10 mi
4:53 pm77 °FSunny.8 mph47%29.97 "Hg10 mi
3:53 pm76 °FSunny.5 mph50%29.97 "Hg10 mi
2:53 pm77 °FPassing clouds.7 mph50%29.96 "Hg10 mi
1:53 pm76 °FPassing clouds.9 mph52%29.96 "Hg10 mi
12:53 pm76 °FSunny.8 mph50%29.97 "Hg10 mi
11:53 am75 °FPassing clouds.7 mph55%29.96 "Hg10 mi
10:53 am75 °FBroken clouds.8 mph55%29.95 "Hg10 mi
10:37 am73 °FScattered clouds.9 mph59%29.97 "Hg10 mi
9:53 am74 °FScattered clouds.8 mph57%29.94 "Hg10 mi
8:53 am72 °FPassing clouds.9 mph61%29.93 "Hg10 mi
7:53 am70 °FSunny.6 mph68%29.92 "Hg10 mi
6:53 am65 °FSunny.No wind85%29.90 "Hg10 mi
5:53 am65 °FPassing clouds.No wind85%29.89 "Hg10 mi
4:53 am67 °FMostly cloudy.5 mph79%29.87 "Hg10 mi
3:53 am69 °FOvercast.5 mph79%29.86 "Hg10 mi
2:53 am69 °FOvercast.No wind81%29.86 "Hg10 mi
1:53 am69 °FOvercast.6 mph81%29.87 "Hg10 mi
12:55 am69 °FLight rain. Mostly cloudy.10 mph79%29.88 "Hg3 mi
12:33 am69 °FHeavy rain. Mostly cloudy.No wind79%29.88 "Hg1 mi
11:53 pm
Sun, Jul 12
72 °FLight rain. Overcast.6 mph71%29.85 "Hg10 mi
10:53 pm72 °FMostly cloudy.No wind68%29.83 "Hg10 mi
9:53 pm73 °FPassing clouds.No wind66%29.82 "Hg10 mi
8:53 pm75 °FScattered clouds.No wind69%29.80 "Hg10 mi
Weather by CustomWeather, © 2020

See weather overview